HJ3GNC-13 Weather Reports


time (UTC)temp
C
wind
direction
speed
KPH
gust
KPH
rain 1hr
cm
rain 24hr
cm
rain mn
cm
humidity
%
barometer
mb
20260507125452 13 50 0.0 0.0 0.00 0.00 0.00 94 1019.0
20260507123906 11 50 0.0 0.0 0.00 0.00 0.00 96 1019.0
20260507122257 10 111 0.0 0.0 0.00 0.00 0.00 97 1020.0
20260507120707 10 111 0.0 0.0 0.00 0.00 0.00 97 1020.0
20260507115040 10 0 0.0 0.0 0.00 0.00 0.00 97 1020.0
20260507113456 10 0 0.0 0.0 0.00 0.00 0.00 97 1020.0
20260507111908 10 70 0.0 0.0 0.00 0.00 0.00 97 1020.0
20260507110319 10 70 0.0 0.0 0.00 0.00 0.00 96 1020.0
20260507104736 10 70 0.0 0.0 0.00 0.00 0.00 95 1020.0
20260507103156 10 80 0.0 0.0 0.00 0.00 0.00 94 1020.0
20260507101615 10 80 0.0 0.0 0.00 0.00 0.00 92 1020.0
20260507100035 10 102 0.0 0.0 0.00 0.00 0.00 90 1020.0
20260507094453 10 102 0.0 0.0 0.00 0.00 0.00 90 1020.0
20260507092910 10 98 0.0 0.0 0.00 0.00 0.00 90 1020.0
20260507091326 10 97 0.0 0.0 0.00 0.00 0.00 90 1020.0
20260507085740 11 350 0.0 0.0 0.00 0.00 0.00 93 1020.0
20260507084157 11 350 0.0 0.0 0.00 0.00 0.00 91 1020.0
20260507082614 11 350 0.0 0.0 0.00 0.00 0.00 91 1020.0
20260507081028 11 350 0.0 0.0 0.00 0.00 0.00 91 1020.0
20260507065142 11 60 0.0 0.0 0.00 0.00 0.00 91 1020.0
20260507063557 11 60 0.0 0.0 0.00 0.00 0.00 91 1020.0
20260507062014 11 60 0.0 0.0 0.00 0.00 0.00 90 1021.0
20260507060432 11 40 0.0 0.0 0.00 0.00 0.00 89 1021.0
20260507054850 11 40 0.0 0.0 0.00 0.00 0.00 88 1021.0
20260507053309 11 40 0.0 0.0 0.00 0.00 0.00 87 1021.0
20260507051726 11 20 0.0 0.0 0.00 0.00 0.00 86 1021.0
20260507015208 15 130 0.0 0.0 0.00 0.00 0.00 63 1021.0
20260507013624 15 130 0.0 0.0 0.00 0.00 0.00 63 1021.0
20260507012040 15 130 0.0 0.0 0.00 0.00 0.00 63 1020.0
20260506233017 15 129 0.0 0.0 0.00 0.00 0.00 85 1017.0
20260506231430 15 144 0.0 0.0 0.00 0.00 0.00 85 1016.0
20260506225829 15 144 0.0 0.0 0.00 0.00 0.00 85 1016.0
20260506224240 15 144 0.0 0.0 0.00 0.00 0.00 85 1016.0
20260506222648 15 157 0.0 0.0 0.00 0.00 0.00 85 1014.0
20260506221057 15 157 0.0 0.0 0.00 0.00 0.00 85 1014.0
20260506215508 15 157 0.0 0.0 0.00 0.00 0.00 85 1014.0
20260506212225 15 164 0.0 0.0 0.00 0.00 0.00 85 1014.0
20260506210602 15 164 0.0 0.0 0.00 0.00 0.00 85 1014.0
20260506205013 15 164 0.0 0.0 0.00 0.00 0.00 85 1014.0
20260506203430 15 164 0.0 0.0 0.00 0.00 0.00 85 1014.0
20260506201838 15 166 0.0 0.0 0.00 0.00 0.00 85 1014.0
20260506200242 15 166 0.0 0.0 0.00 0.00 0.00 85 1014.0
20260506194659 15 166 0.0 0.0 0.00 0.00 0.00 85 1014.0
20260506193114 15 166 0.0 0.0 0.00 0.00 0.00 85 1014.0
20260506191523 15 158 0.0 0.0 0.00 0.00 0.00 85 1015.0
20260506185920 15 158 0.0 0.0 0.00 0.00 0.00 84 1016.0
20260506184333 13 158 0.0 0.0 0.00 0.00 0.00 92 1016.0
20260506182748 13 132 0.0 0.0 0.00 0.00 0.00 92 1017.0
20260506181203 13 136 0.0 0.0 0.00 0.00 0.00 92 1017.0
20260506175549 13 136 0.0 0.0 0.00 0.00 0.00 92 1017.0
20260506174001 13 133 0.0 0.0 0.00 0.00 0.00 92 1018.0
20260506172415 13 100 0.0 0.0 0.00 0.00 0.00 92 1018.0
20260506170832 13 93 0.0 0.0 0.00 0.00 0.00 92 1018.0
20260506165247 13 93 0.0 0.0 0.00 0.00 0.00 92 1018.0
20260506163656 13 93 6.4 6.4 0.00 0.00 0.00 92 1018.0
20260506162046 13 93 0.0 0.0 0.00 0.00 0.00 92 1019.0
20260506160458 13 93 0.0 0.0 0.00 0.00 0.00 92 1019.0
20260506154906 13 93 0.0 0.0 0.00 0.00 0.00 92 1019.0
20260506153316 13 93 0.0 0.0 0.00 0.00 0.00 92 1019.0
20260506151643 13 88 0.0 0.0 0.00 0.00 0.00 92 1019.0
20260506135715 13 70 0.0 0.0 0.00 0.00 0.00 99 1019.0
20260506134131 12 70 0.0 0.0 0.00 0.00 0.00 99 1019.0
20260506132545 12 70 0.0 0.0 0.00 0.00 0.00 98 1019.0
20260506131000 12 0 0.0 0.0 0.00 0.00 0.00 98 1019.0